Temperature
17 16 16 16 16 16 16 16 16 16 16 16 16 16 16 15 15 15 15 15 15 14 14 14 14 14 14 13 13 13 13 13 13 13 13 13 13 13
17 17 17 17 16 16 16 16 16 16 15 16 16 15 15 15 15 15 15 14 14 14 14 14 14 14 13 13 13 13 13 13 13 13 13 13 12 12
17 17 17 16 16 16 16 16 16 16 15 16 15 15 15 15 15 15 14 14 14 14 14 14 13 13 13 13 13 13 13 13 13 13 12 12 12 12
17 17 16 16 16 16 16 16 16 15 15 15 15 15 15 15 14 14 14 14 14 14 13 13 13 13 13 13 13 13 13 13 12 12 12 12 12 12
17 16 16 16 16 16 16 16 15 15 15 15 15 15 15 14 14 14 14 14 14 13 13 13 13 13 13 13 13 12 12 12 12 12 12 12 12 11
17 16 16 16 16 16 16 15 15 15 15 15 15 15 14 14 14 14 14 14 13 13 13 13 13 13 13 13 12 12 12 12 12 12 12 11 11 11
16 16 16 16 16 16 15 15 15 15 15 15 15 14 14 14 14 14 14 13 13 13 13 13 13 13 13 12 12 12 12 12 12 11 11 11 11 11
16 16 16 16 16 16 15 15 15 15 15 15 15 14 15 14 14 13 13 13 13 13 13 13 13 13 13 12 12 12 12 12 11 11 11 11 11 11
16 16 16 16 16 16 15 15 15 15 15 15 15 15 15 14 14 13 13 13 13 13 12 12 13 13 13 12 12 12 12 11 11 11 11 11 11 10
16 16 16 16 16 16 15 15 15 15 15 15 15 15 14 14 14 13 13 13 12 12 12 12 12 12 12 12 12 12 11 11 11 11 11 11 10 10
16 16 16 16 16 15 15 15 15 15 15 15 14 14 14 14 14 13 13 12 12 12 12 12 12 12 12 12 12 12 11 11 11 11 11 10 10 10
15 15 15 15 15 15 15 15 15 15 15 15 14 14 14 14 13 13 13 12 12 12 12 12 12 11 11 12 12 12 11 11 11 11 10 10 10 10
15 15 15 15 15 15 15 15 15 14 14 14 14 14 14 13 13 13 13 12 12 12 12 12 11 11 11 11 11 11 11 11 11 10 10 10 10 10
15 15 15 14 14 14 14 14 14 14 14 13 13 14 13 13 13 13 13 12 12 12 12 11 11 11 11 10 10 11 11 11 10 10 10 10 10 10
14 14 14 14 14 14 14 14 13 13 13 13 13 13 13 13 13 13 12 12 12 12 11 11 11 11 10 10 10 10 10 10 10 10 10 10 10 10
14 14 13 13 13 13 13 13 13 13 13 13 13 12 12 12 12 12 12 12 12 12 12 11 11 11 10 10 10 10 10 10 10 10 9 9 9 9
13 13 13 13 13 13 13 12 12 12 12 12 12 12 12 12 12 12 11 11 11 11 11 11 11 10 10 10 10 10 10 10 10 9 9 9 9 9
12 12 12 12 12 12 12 12 12 12 12 11 11 11 11 11 11 11 11 10 10 10 10 10 10 10 10 10 10 9 9 9 9 9 9 9 9 9
12 12 12 12 12 12 12 11 11 11 11 11 11 11 11 11 10 10 10 10 10 10 10 10 10 9 9 9 9 9 9 9 9 9 9 9 9 9
12 12 11 11 11 11 11 11 11 11 11 11 11 11 11 10 10 10 10 10 10 9 9 9 9 9 9 9 9 9 9 9 9 9 9 9 9 9
11 11 11 11 11 11 11 11 11 11 11 10 10 10 10 10 10 10 10 10 9 9 9 9 9 9 9 9 8 9 9 9 9 9 8 8 8 8
10 10 11 11 11 10 10 10 10 10 10 10 10 10 10 10 10 9 9 9 9 9 9 9 9 8 8 8 8 8 8 8 8 8 8 8 8 8
10 10 10 10 10 10 10 10 10 10 10 9 9 9 9 9 9 9 9 9 9 8 8 8 8 8 8 8 8 8 8 8 8 8 8 8 8 8
Wind_Speed
5 5 4 4 4 4 4 4 4 3 3 3 2 2 3 4 5 5 5 5 6 7 6 6 6 5 4 3 3 2 2 2 1 2 2 2 2 2
4 5 4 4 4 4 5 4 4 4 3 2 2 2 2 3 4 5 4 5 5 6 7 7 7 6 5 4 4 3 3 3 2 2 1 1 2 2
4 5 5 4 4 4 4 4 4 4 4 3 1 1 3 3 3 3 4 4 4 5 6 7 7 6 6 5 5 5 4 4 3 3 2 2 2 2
5 5 5 4 5 4 4 4 4 4 4 4 2 2 2 3 3 3 3 3 4 5 6 7 8 7 7 6 6 5 5 5 5 4 4 4 3 3
5 6 5 5 5 4 5 5 4 4 3 3 3 2 1 2 2 2 3 2 3 4 6 7 8 8 8 8 8 7 7 7 7 6 6 6 5 5
5 6 6 6 6 6 5 5 4 4 3 3 2 2 2 2 2 3 2 2 3 3 5 5 7 8 9 9 9 9 9 8 8 8 7 7 7 6
5 5 6 6 7 6 5 5 5 4 3 3 3 3 3 3 4 3 4 3 3 4 4 4 5 5 7 9 10 10 11 10 9 9 9 8 8 8
6 5 5 6 6 7 7 7 7 6 6 5 4 5 6 5 4 4 4 3 4 4 4 5 4 5 6 8 10 12 12 12 11 11 10 10 10 9
6 5 4 4 5 4 5 6 7 9 9 8 7 7 7 7 6 6 6 6 5 3 4 5 4 6 6 9 12 13 13 13 13 12 12 11 11 11
5 6 6 5 5 5 5 5 5 7 8 8 8 8 8 7 8 7 6 5 4 3 5 4 4 5 5 7 12 14 14 13 13 13 13 13 12 12
6 6 6 7 7 7 6 6 5 5 6 8 8 8 8 9 8 5 4 4 5 4 5 4 3 3 3 5 8 12 13 13 14 14 13 13 13 12
4 5 7 8 7 8 7 7 7 6 4 4 5 6 7 8 10 9 8 6 4 4 5 5 3 2 3 3 4 6 8 11 13 14 14 13 12 9
5 5 5 7 8 9 8 7 8 6 4 5 5 4 4 4 6 8 8 8 7 6 5 5 4 4 3 2 3 4 5 5 7 9 11 13 13 12
5 5 5 7 8 8 7 7 7 5 4 4 4 5 5 5 6 7 9 10 9 8 7 7 5 5 5 4 4 3 4 5 6 6 7 9 11 14
5 6 7 7 6 6 7 8 6 5 5 5 6 6 5 5 4 4 5 6 7 8 7 8 6 5 6 6 4 4 3 4 6 6 6 6 6 7
5 4 4 5 4 5 4 4 4 5 5 6 6 5 4 3 4 4 4 4 4 5 5 8 9 7 6 7 6 5 5 4 4 5 6 6 7 9
2 2 2 2 3 3 3 3 4 4 5 5 5 5 4 4 4 4 4 4 5 5 4 3 4 6 7 6 6 7 6 5 6 5 5 6 6 8
2 2 3 4 4 4 4 4 4 5 5 5 5 5 5 5 4 4 4 5 6 6 5 4 3 2 3 5 8 8 7 7 6 6 6 6 7 7
2 3 4 4 5 5 5 5 5 5 5 5 5 5 5 5 4 5 5 5 6 6 6 4 4 5 6 7 6 9 8 6 6 5 6 7 7 7
3 4 5 5 5 5 5 5 5 5 4 5 5 5 5 5 5 6 6 7 7 6 6 5 6 7 8 7 5 5 10 8 7 7 6 6 6 5
4 4 5 5 5 5 5 5 5 5 5 5 5 6 5 5 6 7 7 7 7 6 7 7 7 7 5 3 4 5 5 9 9 6 6 5 5 4
4 5 4 5 4 4 4 4 4 5 5 5 5 5 5 6 7 8 7 6 6 7 7 6 4 3 4 6 8 8 6 5 7 9 9 8 6 6
4 5 5 5 5 4 4 4 5 5 5 5 5 5 5 5 6 6 6 6 6 6 6 5 3 3 5 6 7 6 7 6 4 4 6 9 12 11
Wind_Direction
219 215 216 218 207 202 193 189 187 220 242 224 216 210 201 194 196 195 203 211 213 214 214 210 205 205 213 223 229 230 235 239 244 260 263 248 248 248
219 217 220 221 210 205 202 203 197 200 227 219 212 207 193 187 191 193 199 206 215 216 216 212 207 207 211 218 223 226 230 238 239 240 239 226 222 225
229 224 230 218 214 208 200 199 200 193 223 244 215 203 193 194 190 195 198 204 219 222 220 216 212 211 213 219 225 226 223 227 228 220 216 214 218 224
233 230 235 224 217 212 202 203 202 196 204 228 230 209 213 200 194 199 207 217 226 226 223 222 218 217 218 220 228 232 228 226 225 224 223 223 227 228
231 231 234 222 225 219 212 211 207 201 196 206 222 214 217 191 192 213 217 228 233 235 230 228 225 228 231 232 233 234 231 228 226 226 225 224 224 224
233 231 229 224 227 221 217 214 203 196 193 199 216 222 218 193 192 216 229 234 239 236 234 232 231 236 238 236 235 234 233 231 228 226 224 222 219 217
239 237 234 227 224 218 216 207 196 199 199 208 219 222 220 202 212 210 224 239 247 231 235 237 234 236 238 238 235 234 232 232 231 230 226 222 219 217
244 243 237 232 227 217 212 201 193 199 208 212 221 225 229 222 212 208 212 223 244 218 217 243 226 238 240 237 236 234 233 233 232 231 229 224 221 220
239 237 238 234 215 218 215 209 211 212 207 209 218 226 225 216 204 210 214 223 234 210 201 239 229 240 241 239 234 234 233 233 233 233 232 228 224 222
233 226 225 235 224 207 209 220 230 231 224 220 223 227 226 216 206 211 219 228 242 218 199 230 230 239 245 240 233 229 230 230 230 232 233 231 228 226
240 235 229 234 230 205 203 220 240 251 239 225 226 230 224 213 201 196 201 214 244 236 203 219 228 238 248 243 231 225 227 229 233 234 233 231 228 226
252 247 236 235 230 210 212 218 234 245 240 237 235 238 232 221 205 207 209 217 231 234 203 204 216 209 244 238 229 224 228 233 233 234 233 230 224 217
246 247 245 230 225 219 218 227 235 234 233 237 243 243 235 228 220 217 216 216 223 235 206 195 209 207 224 240 243 230 223 228 229 234 233 228 220 211
245 247 245 231 226 223 224 232 231 225 235 238 242 242 240 240 238 231 228 227 230 238 221 202 214 211 215 236 247 230 229 229 226 229 228 221 219 219
248 245 246 243 234 234 231 230 224 222 225 232 240 247 247 244 240 238 239 238 244 246 232 216 221 220 221 233 236 232 237 237 223 224 224 220 218 213
261 260 253 247 237 239 239 232 225 222 224 237 245 250 250 244 239 236 239 234 244 252 244 230 222 219 229 237 235 238 231 223 219 225 226 227 222 217
248 266 265 261 253 252 251 247 237 228 232 242 241 245 244 242 244 237 234 232 240 249 253 246 238 235 235 230 235 240 240 243 235 221 218 232 232 224
197 247 259 256 251 249 247 248 243 238 238 237 238 236 240 242 246 241 235 235 243 246 245 240 224 240 256 253 227 233 237 242 236 220 217 231 242 233
213 248 256 255 253 251 246 243 245 245 239 236 236 237 238 240 241 241 237 241 246 246 244 230 219 222 239 255 240 217 230 241 235 231 227 229 240 239
251 249 250 251 248 247 246 247 247 244 238 239 243 243 240 238 240 243 241 242 245 245 246 236 227 226 231 245 250 243 222 228 232 235 237 236 243 249
266 264 261 259 254 250 248 247 245 242 238 236 240 243 241 240 246 247 245 240 240 243 245 245 243 236 242 237 251 257 243 224 226 231 228 227 235 236
270 269 268 266 262 259 257 252 248 246 242 240 242 245 243 240 244 246 245 243 241 243 248 253 242 221 224 236 248 255 259 254 242 238 227 218 217 224
273 272 270 269 263 259 259 257 254 254 250 245 245 248 248 247 249 247 245 242 243 245 247 250 245 234 237 240 249 257 258 253 242 239 248 240 235 241
Height
1546 1547 1547 1548 1548 1549 1549 1550 1550 1549 1549 1550 1550 1551 1551 1552 1552 1552 1552 1553 1552 1552 1552 1552 1551 1551 1551 1551 1551 1550 1550 1550 1550 1550 1549 1549 1549 1549
1543 1544 1544 1545 1545 1546 1546 1546 1547 1547 1547 1546 1547 1548 1549 1549 1549 1550 1550 1550 1549 1549 1549 1549 1549 1548 1548 1548 1548 1548 1548 1547 1547 1547 1547 1547 1546 1546
1540 1541 1541 1542 1542 1542 1543 1543 1543 1544 1544 1543 1544 1545 1545 1546 1546 1547 1547 1546 1546 1546 1546 1546 1546 1546 1545 1545 1545 1545 1545 1545 1545 1544 1544 1544 1544 1544
1537 1537 1538 1539 1539 1539 1539 1539 1539 1540 1540 1540 1541 1541 1542 1542 1543 1543 1543 1543 1543 1543 1543 1542 1543 1542 1542 1542 1542 1542 1542 1542 1542 1542 1541 1541 1541 1541
1533 1534 1534 1535 1535 1535 1535 1536 1536 1536 1537 1537 1537 1538 1538 1539 1539 1539 1539 1539 1539 1539 1539 1539 1539 1539 1539 1539 1539 1539 1539 1539 1538 1538 1538 1538 1538 1538
1530 1530 1530 1531 1531 1531 1532 1532 1532 1532 1533 1533 1533 1534 1534 1534 1535 1535 1535 1535 1535 1535 1535 1535 1535 1536 1536 1536 1535 1535 1535 1535 1535 1535 1535 1535 1535 1535
1526 1526 1526 1527 1527 1527 1528 1528 1529 1529 1529 1530 1529 1529 1530 1530 1530 1530 1531 1531 1531 1531 1531 1531 1532 1532 1532 1532 1532 1531 1531 1531 1531 1531 1531 1532 1532 1532
1522 1522 1523 1523 1523 1523 1523 1524 1524 1525 1525 1525 1525 1525 1525 1526 1526 1526 1526 1526 1526 1527 1527 1527 1528 1527 1527 1527 1527 1527 1527 1527 1527 1527 1528 1528 1528 1528
1518 1518 1518 1518 1519 1519 1519 1519 1520 1520 1521 1521 1521 1520 1521 1521 1521 1521 1522 1522 1522 1522 1523 1522 1523 1522 1523 1522 1523 1523 1523 1523 1523 1523 1523 1524 1524 1524
1514 1514 1513 1514 1514 1515 1515 1515 1515 1516 1516 1516 1516 1516 1517 1517 1517 1517 1517 1517 1517 1518 1518 1517 1517 1517 1518 1518 1518 1518 1518 1519 1519 1519 1519 1520 1520 1520
1509 1509 1509 1509 1510 1510 1510 1510 1510 1511 1511 1512 1512 1512 1512 1512 1512 1512 1511 1511 1511 1512 1513 1512 1512 1512 1512 1512 1513 1513 1513 1514 1514 1514 1515 1515 1515 1516
1504 1504 1504 1504 1505 1505 1505 1505 1504 1505 1506 1506 1507 1507 1507 1507 1507 1506 1506 1506 1506 1506 1506 1507 1507 1507 1506 1506 1507 1507 1508 1508 1509 1509 1510 1510 1510 1510
1498 1499 1499 1499 1499 1500 1500 1499 1499 1500 1500 1500 1500 1501 1501 1501 1501 1501 1501 1501 1501 1500 1501 1502 1501 1501 1502 1501 1501 1502 1502 1503 1503 1503 1504 1504 1505 1505
1493 1493 1493 1494 1494 1494 1494 1494 1495 1495 1495 1494 1494 1494 1494 1494 1495 1495 1495 1495 1495 1496 1496 1497 1496 1496 1496 1495 1495 1495 1496 1497 1497 1497 1498 1498 1499 1499
1488 1488 1488 1488 1488 1488 1488 1489 1489 1489 1489 1488 1488 1488 1488 1489 1489 1489 1489 1490 1490 1490 1490 1490 1490 1490 1490 1490 1489 1489 1490 1490 1491 1491 1492 1492 1492 1493
1483 1483 1483 1483 1482 1482 1482 1482 1482 1483 1482 1482 1482 1482 1483 1483 1483 1483 1483 1483 1483 1483 1484 1484 1484 1484 1484 1484 1484 1483 1483 1484 1484 1485 1486 1486 1487 1487
1478 1477 1477 1477 1476 1476 1476 1476 1476 1477 1477 1477 1477 1477 1477 1477 1477 1478 1478 1477 1477 1477 1477 1478 1478 1478 1478 1478 1477 1477 1477 1477 1478 1479 1479 1479 1480 1481
1473 1472 1471 1471 1471 1471 1470 1470 1471 1471 1471 1471 1471 1471 1471 1471 1471 1472 1472 1471 1471 1471 1471 1471 1472 1471 1471 1470 1471 1471 1471 1471 1472 1472 1473 1473 1473 1474
1468 1467 1467 1467 1466 1466 1465 1465 1465 1465 1466 1466 1465 1465 1466 1465 1465 1466 1466 1466 1465 1465 1465 1465 1465 1465 1465 1463 1464 1465 1465 1465 1465 1466 1466 1466 1466 1467
1464 1463 1463 1463 1462 1462 1461 1460 1460 1460 1459 1459 1460 1460 1460 1460 1459 1459 1459 1459 1459 1459 1459 1459 1459 1459 1458 1458 1458 1458 1459 1459 1459 1459 1460 1460 1461 1461
1461 1460 1459 1459 1458 1457 1456 1455 1455 1454 1454 1453 1453 1453 1454 1454 1453 1453 1453 1453 1453 1453 1452 1452 1453 1454 1454 1454 1453 1452 1453 1454 1454 1454 1454 1454 1454 1454
1457 1456 1456 1455 1454 1453 1452 1451 1450 1449 1448 1448 1448 1448 1448 1448 1447 1447 1447 1447 1446 1446 1446 1447 1448 1448 1448 1447 1446 1446 1446 1447 1447 1448 1448 1449 1448 1448
1454 1453 1452 1452 1451 1450 1448 1447 1446 1445 1444 1443 1443 1442 1442 1442 1441 1441 1441 1441 1440 1440 1441 1441 1441 1442 1441 1441 1441 1441 1441 1441 1441 1441 1441 1442 1443 1443